GW4536 Weather Reports


time (UTC)temp
F
wind
direction
speed
knots
gust
knots
rain 1hr
in
rain 24hr
in
rain mn
in
humidity
%
barometer
mb
20260504130510 59 153 0.0 3.5 0.00 0.00 0.00 44 1004.2
20260504110511 47 211 0.0 0.0 0.00 0.00 0.00 60 1004.4
20260504100511 42 211 0.0 0.0 0.00 0.00 0.00 67 1004.3
20260504081510 42 211 0.0 0.0 0.00 0.00 0.00 71 1004.1
20260504081010 42 211 0.0 0.0 0.00 0.00 0.00 71 1004.2
20260504080510 42 211 0.0 0.0 0.00 0.00 0.00 72 1004.2
20260504050511 39 211 0.0 0.0 0.00 0.00 0.00 72 1004.2
20260504050011 39 211 0.0 0.0 0.00 0.00 0.00 72 1004.2
20260504045510 39 211 0.0 0.0 0.00 0.00 0.00 72 1004.2
20260504044511 38 211 0.0 0.0 0.00 0.00 0.00 72 1004.2
20260504044011 38 211 0.0 0.0 0.00 0.00 0.00 72 1004.2
20260504043511 38 211 0.0 0.0 0.00 0.00 0.00 72 1004.2
20260504043011 38 211 0.0 0.0 0.00 0.00 0.00 72 1004.2
20260504042511 38 211 0.0 0.0 0.00 0.00 0.00 72 1004.0
20260504042011 38 211 0.0 0.0 0.00 0.00 0.00 72 1004.0
20260504041512 38 211 0.0 0.0 0.00 0.00 0.00 72 1004.0
20260504041011 38 211 0.0 0.0 0.00 0.00 0.00 71 1003.8
20260504040511 38 211 0.0 0.0 0.00 0.00 0.00 71 1003.8
20260504040031 38 211 0.0 0.0 0.00 0.00 0.00 72 1003.8
20260504035512 38 211 0.0 0.0 0.00 0.00 0.00 72 1003.8
20260504035011 38 211 0.0 0.0 0.00 0.00 0.00 72 1003.8
20260504034011 38 211 0.0 0.0 0.00 0.00 0.00 73 1003.7
20260504033011 38 211 0.0 0.0 0.00 0.00 0.00 74 1003.7
20260504030511 39 211 0.0 0.0 0.00 0.00 0.00 73 1003.4
20260504030011 39 211 0.0 0.0 0.00 0.00 0.00 72 1003.4
20260504025511 39 211 0.0 0.0 0.00 0.00 0.00 72 1003.4